Location: Lane
(33.5226°N, 79.8788°W)
Time: 16:44:46
(UTC+00:00)

Vanguard 1 Rocket - All Passes

Search period start: 26 September 2022 00:00
Search period end: 06 October 2022 00:00
Orbit: 651 x 4224 km, 34.3° (Epoch: 25 September)

Date Brightness Start Highest point End Pass type
(mag) Time Alt. Az. Time Alt. Az. Time Alt. Az.
26 Sep - 01:28:14 10° SW 01:46:07 53° SSE 01:55:25 10° E visible
26 Sep - 04:00:30 10° WSW 04:13:21 88° S 04:19:51 10° E visible
26 Sep - 06:31:34 10° W 06:39:08 85° S 06:43:51 10° ESE night (unlit)
26 Sep - 08:59:45 10° W 09:03:25 21° SSW 09:06:49 10° SSE visible
26 Sep - 21:51:29 10° S 22:02:46 15° SE 22:11:58 10° ESE daylight
27 Sep - 00:13:51 10° SSW 00:33:02 41° SSE 00:44:00 10° E visible
27 Sep - 02:45:10 10° WSW 03:01:19 76° SSE 03:09:14 10° E visible
27 Sep - 05:17:48 10° W 05:27:50 85° N 05:33:19 10° E visible
27 Sep - 07:47:10 10° W 07:52:47 43° SSW 07:56:58 10° SE night (unlit)
27 Sep - 23:00:35 10° SSW 23:19:24 31° SSE 23:31:40 10° E visible
28 Sep - 01:29:42 10° SW 01:48:46 63° SSE 01:58:24 10° E visible
28 Sep - 04:02:58 10° W 04:16:09 87° N 04:22:46 10° E visible
28 Sep - 06:34:14 10° W 06:41:57 72° SSW 06:46:42 10° ESE night (unlit)
28 Sep - 09:03:28 10° WSW 09:05:58 14° SW 09:08:18 10° S visible
28 Sep - 21:49:11 10° S 22:05:22 22° SE 22:17:36 10° E daylight
29 Sep - 00:14:43 10° SW 00:35:36 51° SSE 00:47:09 10° E visible
29 Sep - 02:47:20 10° WSW 03:04:02 84° SSE 03:12:09 10° E visible
29 Sep - 05:20:23 10° W 05:30:41 89° N 05:36:15 10° E visible
29 Sep - 07:50:05 10° W 07:55:23 31° SSW 07:59:23 10° SSE night (unlit)
29 Sep - 20:42:01 10° SSE 20:51:02 13° SE 20:59:06 10° ESE daylight
29 Sep - 23:00:45 10° SSW 23:21:53 39° SSE 23:35:10 10° E visible
30 Sep - 01:31:26 10° WSW 01:51:22 72° SSE 02:01:19 10° E visible
30 Sep - 04:05:28 10° W 04:18:58 85° N 04:25:43 10° E visible
30 Sep - 06:36:52 10° W 06:44:40 58° SSW 06:49:27 10° SE night (unlit)
30 Sep - 21:48:20 10° SSW 22:07:46 29° SE 22:21:56 10° E daylight
01 Oct - 00:15:56 10° SW 00:38:06 60° SSE 00:50:08 10° E visible
01 Oct - 02:49:38 10° WSW 03:06:45 90° S 03:15:03 10° E visible
01 Oct - 05:22:57 10° W 05:33:30 83° SSW 05:39:09 10° ESE visible
01 Oct - 07:53:12 10° W 07:57:52 22° SW 08:01:29 10° SSE night (unlit)
01 Oct - 20:38:23 10° S 20:53:28 19° SE 21:06:13 10° ESE daylight
01 Oct - 23:01:24 10° SW 23:24:17 48° SSE 23:38:22 10° E visible
02 Oct - 01:33:23 10° WSW 01:53:59 80° SSE 02:04:12 10° E visible
02 Oct - 04:07:59 10° W 04:21:48 87° N 04:28:39 10° E visible
02 Oct - 06:39:34 10° W 06:47:17 45° SSW 06:52:03 10° SE night (unlit)
02 Oct - 21:48:15 10° SSW 22:10:03 36° SE 22:25:35 10° E daylight
03 Oct - 00:17:27 10° SW 00:40:35 69° SSE 00:53:02 10° ENE visible
03 Oct - 02:52:01 10° W 03:09:31 87° N 03:17:58 10° E visible
03 Oct - 05:25:29 10° WNW 05:36:15 72° SSW 05:41:59 10° ESE visible
03 Oct - 07:56:46 10° WSW 08:00:13 15° SW 08:03:04 10° S night (unlit)
03 Oct - 20:37:01 10° S 20:55:42 26° SE 21:11:06 10° E daylight
03 Oct - 23:02:25 10° SW 23:26:37 57° SSE 23:41:21 10° ENE visible
04 Oct - 01:35:31 10° WSW 01:56:37 87° SSE 02:07:05 10° E visible
04 Oct - 04:10:28 10° W 04:24:35 89° SSW 04:31:33 10° E visible
04 Oct - 06:42:20 10° W 06:49:46 34° SW 06:54:29 10° SSE night (unlit)
04 Oct - 19:29:23 10° SSE 19:41:24 15° SE 19:52:40 10° ESE daylight
04 Oct - 21:48:43 10° SSW 22:12:14 44° SE 22:28:52 10° E daylight
05 Oct - 00:19:13 10° WSW 00:43:04 77° SSE 00:55:53 10° ENE visible
05 Oct - 02:54:27 10° W 03:12:16 86° N 03:20:53 10° E visible
05 Oct - 05:28:01 10° WNW 05:38:53 60° SSW 05:44:43 10° SE visible
05 Oct - 20:36:41 10° SSW 20:57:45 33° SE 21:15:03 10° E daylight
05 Oct - 23:03:46 10° SW 23:28:55 65° SSE 23:44:14 10° ENE visible
